Location: 相模原市立博物館
(35.5593°N, 139.3931°E)
Time: 11:57:38
(UTC+09:00)

Envisat - Pass Details

Date: 29 October 2021
Orbit: 764 x 766 km, 98.2° (Epoch: 30 November)

Event Time Altitude Azimuth Distance (km) Brightness Sun altitude
Rises 03:34:25 0° 33° (NNE) 3,234 6.7 -30.4°
Reaches altitude 10° 03:37:36 10° 54° (NE) 2,303 6.1 -29.7°
Maximum altitude 03:40:45 17° 93° (E) 1,884 5.8 -29.1°
Drops below altitude 10° 03:43:55 10° 132° (SE) 2,293 6.0 -28.4°
Sets 03:47:03 0° 152° (SSE) 3,213 6.5 -27.8°
